Volver al catálogo

SL-12 R/B(2)

ActivoGEO
NORAD 22115·ROCKET BODY·🇷🇺 Russia

Lanzado Sep 10, 1992 desde Baikonur Cosmodrome

Loading…

TLE

ActualizadoSource: Space-Track

Época: Aug 28, 2026, 16:10 UTC

1 22115U 92059D   26240.67414693  .00000108  00000-0  00000+0 0  9998
2 22115  13.7755 342.9423 0011903 329.6105 304.0885  0.99793028123009

Sigue SL-12 R/B(2) en tiempo real con AllMySat

Download on the App Store